Regional Weather Roundup
Issued by NWS

Home | Current Version | Previous Version | Text Only | Print | Product List | Glossary Off
Versions: 1 2 3 4 5 6 7 8 9 10 11 12 13 14 15 16 17 18 19 20 21 22 23 24 25 26 27 28 29 30 31 32 33 34 35 36 37 38 39 40 41 42 43 44 45 46 47 48 49 50

000
ASUS43 KFSD 182102
RWRSD

WEATHER ROUNDUP FOR SOUTH DAKOTA
NATIONAL WEATHER SERVICE SIOUX FALLS SD
400 PM CDT WED OCT 18 2017

NOTE: "FAIR" INDICATES FEW OR NO CLOUDS BELOW 12,000 FEET WITH NO
SIGNIFICANT WEATHER AND/OR OBSTRUCTIONS TO VISIBILITY.


SDZ001>005-009-010-012>017-182200-
NORTHWEST AND NORTH CENTRAL SOUTH DAKOTA

CITY           SKY/WX    TMP DP  RH WIND       PRES   REMARKS
BUFFALO          N/A     62  25  24 W8G20     29.94F
FAITH            N/A     62  18  18 SW6       30.01F
MOBRIDGE       SUNNY     64  22  20 NW9       29.99S
$$

SDZ012>016-024>037-041>051-057-063-072>074-182200-
SOUTHWEST AND SOUTH CENTRAL SOUTH DAKOTA

CITY           SKY/WX    TMP DP  RH WIND       PRES   REMARKS
RAPID CTY ARPT SUNNY     64  25  22 SE12      30.05F
PIERRE         SUNNY     63  22  20 NW12      30.03R
CUSTER         SUNNY     62  24  23 SW9       30.11S
ELLSWORTH AFB  SUNNY     64  25  22 S7        30.04F
PHILIP         SUNNY     65  24  21 SW3       30.04S
PINE RIDGE     SUNNY     67  28  23 VRB5      30.07F
SPEARFISH      FAIR      63  30  29 E9        30.05F
WINNER         FAIR      68  32  26 NW12      30.05S
$$

SDZ004>011-016>023-039-040-182200-
NORTHEAST SOUTH DAKOTA

CITY           SKY/WX    TMP DP  RH WIND       PRES   REMARKS
ABERDEEN       MOSUNNY   61  27  27 W10       30.00S
WATERTOWN      MOSUNNY   60  29  30 NW15      29.97R
BROOKINGS      CLOUDY    65  29  25 N10       29.98R
SISSETON         N/A     62  26  25 W15       29.95R
$$

SDZ017-020-022-023-036>040-048>070-182200-
SOUTHEAST SOUTH DAKOTA

CITY           SKY/WX    TMP DP  RH WIND       PRES   REMARKS
SIOUX FALLS    PTSUNNY   72  37  28 N14G23    29.96R
HURON          SUNNY     65  21  18 N14       30.01R
CHAMBERLAIN    SUNNY     68  31  24 NW7       30.03R
MITCHELL       SUNNY     69  25  19 N14       30.01R
YANKTON        SUNNY     74  36  25 N16       29.97R
$$

ABBREVIATIONS USED IN REMARKS
   TC - TEMPERATURE IN CELSIUS
  WCI - WIND CHILL INDEX
   HX - HEAT INDEX
  VSB - VISIBILITY





USA.gov is the U.S. government's official web portal to all federal, state and local government web resources and services.